Погода в Ряжске

Хотите узнать прогноз погоды в Ряжске? Тогда Вам сюда: Погода в Ряжске

Поиск расширенной информации на нашем сайте:

Полезная информация:

Новости сайта



02.01.2020
Опубликован Долгосрочный прогноз погоды по городам России и ближнего зарубежья на январь 2020 года.
Карты: Прогноз на январь и февраль 2020 года, Сравнение прогнозируемой аномалии приземной температуры воздуха на январь 2020 года по разным моделям.




Погода в Ряжске - сегодня

Время (UTC), дата Ветер
(°,м/с) 
Видим.   Явления Облачность Т
(°С)
Тd
(°С)
f(%) Тe
(°С)
Pmin
(гПа)
dP
(гПа)
Po
(мм)
O2
(г/м3)
Тmin Tmax R s Состояние
почвы
15 02.07.20 230 (ЮЗ) 10 км    6/3 1000 м верхняя 
[Cu med, cong|Ci sp]
+27.2 +13.8 44 +34  1012.4  -0.3  748  272    +27.2       
18 02.07.20 тихо ()   10 км    4/0 средняя, верхняя 
[Ac trans|Ci sp]
+20.4 +17.3 82 +33  1013  0.3  749  277           
21 02.07.20 тихо ()   4000 м  дымка  8/0 верхняя 
[Ci sp]
+17.6 +16.3 92 +29  1013.6  0.5  749  280           
00 03.07.20 160 (Ю) 10 км    8/0 средняя, верхняя 
[Ac trans|Ci sp]
+17.1 +15.1 88 +28  1013.3  -0.3  749  281           
03 03.07.20 160 (Ю) 10 км    8/0 средняя, верхняя 
[Ac trans|Ci sp]
+18.9 +15.3 80 +29  1013.9  0.7  749  279  +16.7        сухая 
06 03.07.20 220 (ЮЗ) 10 км    8/0 верхняя 
[Ci sp]
+25.2 +17.2 61 +38  1014.1  0.5  750  273           
09 03.07.20 220 (ЮЗ) 10 км    8/1 1000 м верхняя 
[Cu med, cong|Ci sp]
+28.1 +17.3 52 +41  1014.7  0.7  750  270           
12 03.07.20 280 (З) 10 км    9/6 600 м кучево-дожд., верхняя 
[Cb calv|Ci sp]
+28.7 +17.2 50 +41  1014.2  -0.5  750  270           
15 03.07.20 210 (ЮЗ) 10 км    9/0 средняя, верхняя 
[Ac trans|Ci sp]
+28.2 +15.5 46 +38  1013.5  -0.7  749  270    +29.6       
18 03.07.20 тихо ()   10 км    9/0 средняя, верхняя 
[Ac trans|Ci sp]
+22.1 +18.4 80 +37  1014  0.2  749  275           
21 03.07.20 тихо ()   4000 м  дымка  8/0 верхняя 
[Ci sp]
+18.9 +17.4 91 +32  1014.8  0.6  750  279           
00 04.07.20 100 (В) 4000 м  дымка  6/0 верхняя 
[Ci sp]
+17.8 +16.1 90 +30  1013.9  -0.9  749  280           
03 04.07.20 120 (ЮВ) 10 км    3/0 верхняя 
[Ci sp]
+20.2 +15.9 76 +31  1013.6  -0.2  749  278  +16.9        сухая 
06 04.07.20 160 (Ю) 10 км    1/0 верхняя 
[Ci sp]
+25.9 +17.6 60 +39  1013.1  -0.2  749  272           
09 04.07.20 220 (ЮЗ) 10 км    6/4 1000 м верхняя 
[Cu hum|Ci sp]
+30.3 +15.2 40 +39  1012.6  -0.3  749  268           
12 04.07.20 210 (ЮЗ) 10 км    4/4 1000 м 
[Cu hum]
+31.8 +16.2 39 +43  1011.7  -0.8  748  267           
15 04.07.20 240 (ЮЗ) 10 км    8/3 1000 м средняя, верхняя 
[Cu med, cong|Ac trans|Ci sp]
+30.4 +16.1 42 +41  1011.1  -0.7  748  268    +32.1       
18 04.07.20 360 (С) 10 км    8/0 средняя, верхняя 
[Ac trans|Ci sp]
+24.9 +18.2 66 +40  1011.7  0.4  748  272           
21 04.07.20 280 (З) 3{14}  4000 м  гроза, ливневой дождь  10/10 600 м кучево-дожд. 
[Cb cap]
+18.5 +17.2 92 +32  1014.1  749  279           
00 05.07.20 230 (ЮЗ) 4000 м  гроза, ливневой дождь  8/3 600 м кучево-дожд., средняя 
[Cb calv|Ac trans]
+17.7 +17.1 96 +32  1011.2  -2.9  747  279           
03 05.07.20 240 (ЮЗ) 4000 м  дымка{гроза, ливн. осадки}  9/4 600 м кучево-дожд., средняя 
[Cb calv|Ac trans]
+18.6 +17.4 93 +33  1013.3  2.1  749  279  +17.6    10    влажная 
06 05.07.20 340 (С) 4000 м  гроза, ливневой дождь  10/6 600 м кучево-дожд., средняя 
[Cb calv|Ac As]
+19 +18.4 96 +36  1012.5  -0.8  748  278           
09 05.07.20 тихо ()   10 км  {гроза, ливн. осадки}  10/0 средняя, верхняя 
[Ac trans|Cs]
+23.6 +19.1 76 +40  1011.6  -0.7  748  273           
12 05.07.20 260 (З) 10 км  {гроза, ливн. осадки}  9/1 1000 м кучево-дожд., средняя, верхняя 
[Cb calv|Ac trans|Ci sp]
+26.6 +18.1 60 +41  1010.7  -0.7  747  270           
15 05.07.20 360 (С) 10 км    9/0 средняя, верхняя 
[Ac trans|Ci sp]
+25.3 +19.9 72 +44  1010.4  -0.3  747  271    +27     
Время (UTC), дата Ветер
(°,м/с) 
Видим.   Явления Облачность Т
(°С)
Тd
(°С)
f(%) Тe
(°С)
Pmin
(гПа)
dP
(гПа)
Po
(мм)
O2
(г/м3)
Тmin Tmax R s Состояние
почвы

Для получения пояснительной информации подведите курсор к названию столбца.

ПОГОДА в Ряжске - архив

Всё, что Вы хотите узнать о погоде в Ряжске - удобно и подробно!

Выберите нужную дату (начиная с 1 января 2019* года) и нажмите кнопку "Найти".
Будут отображены архивные сводки погоды по пункту Ряжск, начиная с указанной даты.


Отображать данные в формате CSV (для использования в таблицах Excel)


Внимание! Наш архив погоды предназначен исключительно для личного некоммерческого использования в познавательных целях. Если Вам необходимы официальные справки о состоянии погоды (для производственных, юридических, коммерческих и т.п. целей), обращайтесь в органы Росгидромета.

*Примечание: данная дата относится к архиву по метеостанциям СССР (Россия, СНГ, Балтия).
Архив по метеостанциям Зарубежной Европы и Азии (кроме Китая) хранится 10 дней, по другим регионам земного шара (Китай, Африка, Америка, Австралия, Океания) - 1 день.

Ряжск - район местоположения метеостанции


Название, широта, долгота, высота метеостанции:
Ряжск 53.7°ш. 40.1°д. 127 м над ур. моря [Российская Федерация]

Дополнительная информация

В oтличие oт бoльшинства пoгoдных сайтoв мы публикуем пoдрoбную метеoинфoрмацию в детальнoм прoфессиoнальнoм фoрмате.

Характеристики температуры и влажнoсти вoздуха измеряются на высoте 2 м в тени вдали oт зданий и деревьев.
Скoрoсть ветра измеряется на высoте 10 м (на урoвне рoста челoвека скoрoсть ветра ниже в 1.5-2 раза). Если метеoстанция нахoдится в гoрoде или в лесу, тo скoрoсть ветра занижена на 2-4 м/с пo сравнению с oткрытым местoм. Скoрoсть ветра над акватoриями крупных рек и oзёр, а также на вершинах хoлмoв на 2-5 м/с выше, чем в oбычных услoвиях.
Атмoсфернoе давление в разных тoчках местнoсти мoжет значительнo oтличаться oт давления на метеoстанции, в зависимoсти oт услoвий рельефа (при пoдъёме на 10 м давление пoнижается примернo на 1 мм рт.ст.).